Portada
METAR-TAF:

METAR-TAF

Aeroports :

Gilmer Municipal Airport (Fox Stephens Field)

Gilmer, Texas, Estats Units d'Amèrica

latitud: 32-41-56N, longitud: 094-56-55W, altitud: 127 m

Observació

L'informe es va fer fa 25 minuts, a les 04:55 UTC
Vent 5 kt del Nord-Est
Temperatura 25°C
Humitat 89%
Pressió 1020 hPa
Visibilitat: 16.1 km
Cel clar

METAR: KJXI 200455Z AUTO 04005KT 10SM CLR 25/23 A3012 RMK AO2 T02500225

Hora: 00:20 (05:20 UTC)


TAF: manca

Observacions i pronòstics meteorològics de més de 4000 aeroports (METAR i TAF).

Les estacions disponibles són els punts grocs i vermells al mapa.

Posi el ratolí al punt desitjat per veure el nom de l'estació.

Feu clic per veure les observacions i els pronòstics meteorològics.

Per canviar el mapa: feu clic els botons verds amb una creu de color negre per apropar; al botó verd amb un guió per allunyar la imatge; o en les fletxes verdes per a mapes adjacents.


METAR-TAF: